Location: General Nathan Twining Observatory
(34.5931°N, 106.8201°W)
Time: 16:56:16
(UTC-06:00)

ADEOS II - Visible Passes

Search period start: 19 April 2015 00:00
Search period end: 29 April 2015 00:00
Orbit: 800 x 803 km, 98.3° (Epoch: 19 April)

Date Brightness Start Highest point End Pass type
(mag) Time Alt. Az. Time Alt. Az. Time Alt. Az.
21 Apr 4.6 05:43:33 10° NE 05:47:42 24° E 05:51:58 10° SSE visible
22 Apr 5.1 05:19:02 10° ENE 05:21:12 13° E 05:23:42 10° ESE visible
25 Apr 4.7 05:38:46 10° NE 05:42:41 22° E 05:46:46 10° SE visible
26 Apr 5.2 05:14:39 10° ENE 05:16:10 11° E 05:18:03 10° ESE visible
